Location: Namasale
(1.5000°N, 32.6167°E)
Time: 06:49:32
(UTC+00:00)

SR - Pass Details

Date: 13 April 2021
Orbit: 573 x 882 km, 66.7° (Epoch: 16 May)

Event Time Altitude Azimuth Distance (km) Brightness Sun altitude
Rises 16:09:28 0° 9° (N) 3,293 ? -4.6°
Reaches altitude 10° 16:12:53 10° 30° (NNE) 2,302 ? -5.4°
Maximum altitude 16:16:02 16° 67° (ENE) 1,858 ? -6.2°
Drops below altitude 10° 16:19:04 10° 105° (ESE) 2,181 ? -6.9°
Enters shadow 16:19:46 - 111° (ESE) 2,344 ? -7.1°
